Location: Unspecified
(40.7945°N, 0.0000°E)
Time: 06:27:34
(UTC+00:00)

AIST 2D - Pass Details

Date: 21 July 2019
Orbit: 458 x 470 km, 97.2° (Epoch: 20 August)

Event Time Altitude Azimuth Distance (km) Brightness Sun altitude
Rises 23:43:52 0° 355° (N) 2,513 ? -28.6°
Reaches altitude 10° 23:46:21 10° 336° (NNW) 1,634 ? -28.7°
Enters shadow 23:47:55 17° 311° (NW) 1,270 ? -28.7°
